EA4BPO Weather Reports


Display with metric or nautical units.
time (UTC)temp
F
wind
direction
speed
MPH
gust
MPH
rain 1hr
in
rain 24hr
in
rain mn
in
humidity
%
barometer
mb
20260504010003 57 215 4.0 10.0 0.00 0.36 0.36 67 1011.8
20260504005524 57 216 6.0 11.0 0.00 0.36 0.36 67 1012.2
20260504005003 58 215 6.0 11.0 0.00 0.36 0.36 66 1012.0
20260504004503 58 210 5.0 9.0 0.00 0.36 0.36 66 1012.0
20260504004003 58 210 3.0 8.0 0.00 0.36 0.36 66 1012.1
20260504003503 58 208 3.0 7.0 0.00 0.36 0.36 66 1011.9
20260504003003 58 208 2.0 7.0 0.00 0.36 0.36 67 1012.0
20260504002503 58 223 1.0 4.0 0.00 0.36 0.36 67 1012.0
20260504002024 58 230 1.0 4.0 0.00 0.36 0.36 67 1012.1
20260504001503 58 231 2.0 3.0 0.00 0.36 0.36 68 1012.1
20260504001024 58 229 2.0 3.0 0.00 0.36 0.36 67 1012.3
20260504000503 58 218 2.0 6.0 0.00 0.36 0.36 67 1012.1
20260504000003 58 215 3.0 7.0 0.00 0.36 0.36 66 1012.3
20260503235503 58 214 4.0 7.0 0.00 0.36 0.36 66 1012.3
20260503235003 58 212 3.0 6.0 0.00 0.36 0.36 65 1012.2
20260503234524 59 214 3.0 6.0 0.00 0.36 0.36 65 1012.3
20260503234003 59 215 3.0 7.0 0.00 0.36 0.36 65 1012.2
20260503233503 59 207 4.0 7.0 0.00 0.36 0.36 64 1012.5
20260503233003 59 198 4.0 7.0 0.00 0.36 0.36 64 1012.5
20260503232524 59 199 4.0 7.0 0.00 0.36 0.36 63 1012.5
20260503232003 59 205 4.0 7.0 0.00 0.36 0.36 62 1012.3
20260503231503 60 206 4.0 7.0 0.00 0.36 0.36 60 1012.5
20260503231003 60 214 3.0 7.0 0.00 0.36 0.36 59 1012.3
20260503230503 60 215 3.0 7.0 0.00 0.36 0.36 60 1012.3
20260503230003 60 212 3.0 7.0 0.36 0.36 0.36 59 1012.5
20260503225503 60 216 2.0 7.0 0.36 0.36 0.36 60 1012.6
20260503225003 60 212 3.0 7.0 0.36 0.36 0.36 60 1012.8
20260503224503 60 216 4.0 8.0 0.36 0.36 0.36 60 1012.6
20260503224003 60 231 4.0 8.0 0.36 0.36 0.36 60 1012.5
20260503223503 60 239 3.0 7.0 0.36 0.36 0.36 60 1012.7
20260503223003 60 236 2.0 6.0 0.36 0.36 0.36 61 1012.7
20260503222503 60 229 3.0 6.0 0.36 0.36 0.36 60 1012.7
20260503222003 60 224 3.0 6.0 0.36 0.36 0.36 59 1012.6
20260503221524 60 227 3.0 6.0 0.36 0.36 0.36 59 1012.7
20260503221024 60 217 3.0 7.0 0.36 0.36 0.36 59 1012.8
20260503220524 60 216 4.0 8.0 0.36 0.36 0.36 58 1012.7
20260503220003 60 220 4.0 8.0 0.00 0.00 0.00 58 1012.7
20260503215503 60 221 3.0 8.0 0.00 0.00 0.32 58 1012.6
20260503215003 61 214 3.0 8.0 0.00 0.00 0.32 58 1012.6
20260503214503 61 217 3.0 8.0 0.00 0.00 0.32 58 1012.6
20260503214003 61 220 3.0 7.0 0.00 0.00 0.32 57 1012.6
20260503213503 61 212 3.0 7.0 0.00 0.00 0.32 57 1012.5
20260503213003 61 212 4.0 7.0 0.00 0.00 0.32 57 1012.7
20260503212503 61 213 3.0 6.0 0.00 0.00 0.32 57 1012.6
20260503212024 61 216 3.0 7.0 0.00 0.00 0.32 56 1012.5
20260503211503 61 227 3.0 7.0 0.00 0.00 0.32 56 1012.5
20260503211024 61 244 4.0 9.0 0.00 0.00 0.32 57 1012.3
20260503210524 61 246 4.0 9.0 0.00 0.00 0.32 56 1012.3
20260503210003 61 246 4.0 9.0 0.00 0.00 0.32 56 1012.1
20260503205503 61 246 4.0 9.0 0.00 0.00 0.32 56 1012.1
20260503205003 61 244 4.0 8.0 0.00 0.00 0.32 56 1012.3
20260503204503 61 243 4.0 9.0 0.00 0.00 0.32 57 1012.2
20260503204003 61 238 4.0 9.0 0.00 0.00 0.32 57 1012.0
20260503203503 61 239 5.0 11.0 0.00 0.00 0.32 58 1012.0
20260503203003 61 237 5.0 11.0 0.00 0.00 0.32 57 1012.1
20260503202503 61 226 5.0 11.0 0.00 0.00 0.32 57 1012.0
20260503202003 61 224 4.0 11.0 0.00 0.00 0.32 59 1011.9
20260503201503 61 237 4.0 9.0 0.00 0.00 0.32 59 1011.7
20260503201003 62 237 4.0 9.0 0.00 0.00 0.32 58 1011.8
20260503200503 62 242 5.0 10.0 0.00 0.00 0.32 59 1011.5
20260503200003 62 251 5.0 10.0 0.00 0.00 0.32 60 1011.6
20260503195524 62 250 5.0 10.0 0.00 0.00 0.32 60 1011.9
20260503195003 62 249 5.0 9.0 0.00 0.00 0.32 61 1011.7
20260503194502 62 249 4.0 8.0 0.00 0.00 0.32 61 1011.6
20260503194023 62 253 4.0 9.0 0.00 0.00 0.32 63 1011.4
20260503193503 62 261 4.0 9.0 0.00 0.00 0.32 63 1011.2
20260503193003 62 260 4.0 7.0 0.00 0.00 0.32 64 1011.4
20260503192503 62 257 5.0 9.0 0.00 0.00 0.32 63 1011.4
20260503192003 62 256 6.0 13.0 0.00 0.00 0.32 63 1011.3
20260503191503 62 247 5.0 13.0 0.00 0.00 0.32 62 1011.3
20260503191003 62 250 5.0 11.0 0.00 0.00 0.32 62 1011.3
20260503190503 62 256 6.0 11.0 0.00 0.00 0.32 62 1011.1
20260503190003 63 249 5.0 11.0 0.00 0.00 0.32 61 1011.2
20260503185502 63 255 5.0 14.0 0.00 0.00 0.32 61 1011.1
20260503185024 63 260 6.0 14.0 0.00 0.00 0.32 60 1010.8
20260503184524 63 260 7.0 14.0 0.00 0.00 0.32 60 1011.1
20260503184003 63 260 8.0 14.0 0.00 0.00 0.32 60 1011.0
20260503183503 63 254 7.0 14.0 0.00 0.00 0.32 61 1011.1
20260503183003 64 249 7.0 13.0 0.00 0.00 0.32 59 1010.8
20260503182503 64 253 7.0 14.0 0.00 0.00 0.32 58 1010.6
20260503182003 64 256 8.0 15.0 0.00 0.00 0.32 59 1010.7
20260503181504 64 256 8.0 15.0 0.00 0.00 0.32 58 1011.0
20260503181003 64 262 7.0 16.0 0.00 0.00 0.32 58 1010.7
20260503180502 64 260 7.0 16.0 0.00 0.00 0.32 57 1010.7
20260503180003 64 254 6.0 15.0 0.00 0.00 0.32 56 1011.0
20260503175503 65 259 8.0 18.0 0.00 0.00 0.32 55 1011.0
20260503175003 65 255 8.0 18.0 0.00 0.00 0.32 55 1010.8
20260503174502 65 252 8.0 15.0 0.00 0.00 0.32 56 1011.0
20260503174002 65 248 7.0 15.0 0.00 0.00 0.32 57 1010.8
20260503173503 65 235 6.0 14.0 0.00 0.00 0.32 57 1010.7
20260503173024 65 242 7.0 16.0 0.00 0.00 0.32 56 1010.7
20260503172502 64 238 8.0 16.0 0.00 0.00 0.32 57 1010.8
20260503172002 65 219 8.0 18.0 0.00 0.00 0.32 57 1010.8
20260503171503 65 233 8.0 18.0 0.00 0.00 0.32 57 1010.8
20260503171002 65 243 7.0 15.0 0.00 0.00 0.32 57 1010.8
20260503170503 65 243 6.0 14.0 0.00 0.00 0.32 56 1010.8
20260503151002 66 219 9.0 19.0 0.00 0.00 0.32 54 1011.0
20260503150502 65 214 9.0 19.0 0.00 0.00 0.32 54 1011.0
20260503131002 65 247 10.0 18.0 0.00 0.01 0.32 59 1011.8
20260503130502 65 242 9.0 18.0 0.00 0.01 0.32 58 1011.6
20260503110502 63 222 8.0 15.0 0.00 0.64 0.32 69 1012.8
20260503090502 59 204 4.0 9.0 0.00 0.71 0.32 90 1013.5
20260503081502 56 199 3.0 9.0 0.00 0.73 0.32 99 1013.7
20260503081002 56 190 3.0 7.0 0.00 0.73 0.32 99 1013.8
20260503080502 56 192 3.0 6.0 0.00 0.73 0.32 99 1013.8
20260503072502 55 183 3.0 6.0 0.00 0.87 0.32 98 1013.5
20260503072002 55 185 3.0 4.0 0.00 0.89 0.00 98 1013.4
20260503071523 55 194 3.0 4.0 0.00 0.89 0.00 98 1013.3
20260503071002 54 189 3.0 6.0 0.00 0.89 0.00 98 1013.3
20260503070523 54 190 3.0 6.0 0.00 0.89 0.00 98 1013.4
20260503055002 55 160 1.0 3.0 0.00 0.95 0.00 95 1013.1
20260503054502 55 144 1.0 3.0 0.00 0.95 0.00 95 1013.0
20260503054002 55 131 1.0 2.0 0.00 0.95 0.00 95 1013.0
20260503053502 55 121 1.0 3.0 0.00 0.95 0.00 95 1013.0
20260503053023 55 109 1.0 3.0 0.00 0.95 0.00 96 1012.9
20260503052502 55 110 1.0 2.0 0.00 0.95 0.00 96 1012.9
20260503052002 55 118 1.0 2.0 0.00 0.95 0.00 96 1013.3
20260503051523 55 107 0.0 2.0 0.00 0.95 0.00 96 1013.1
20260503051002 55 85 0.0 1.0 0.00 0.95 0.00 96 1013.0
20260503050502 55 73 0.0 2.0 0.00 0.95 0.00 96 1013.2
20260503050002 55 70 1.0 2.0 0.00 0.95 0.00 96 1013.0
20260503045502 55 63 1.0 2.0 0.00 0.95 0.00 96 1013.1
20260503045002 55 45 0.0 1.0 0.00 0.95 0.00 96 1012.9
20260503044523 55 41 0.0 1.0 0.00 0.95 0.00 96 1013.3
20260503044023 55 47 0.0 1.0 0.00 0.95 0.00 96 1013.2
20260503043523 55 46 0.0 1.0 0.00 0.95 0.00 96 1013.1
20260503043002 55 60 0.0 1.0 0.00 0.95 0.00 96 1013.1
20260503042523 55 71 1.0 4.0 0.00 0.95 0.00 96 1013.1
20260503042002 55 76 2.0 4.0 0.00 0.95 0.00 96 1012.9
20260503041523 55 78 2.0 4.0 0.00 0.95 0.00 96 1013.2
20260503041023 55 74 2.0 4.0 0.00 0.95 0.00 96 1013.2
20260503040502 54 72 3.0 4.0 0.00 0.95 0.00 96 1013.1
20260503040002 55 72 3.0 4.0 0.00 0.95 0.00 96 1013.2